Location: Saint Louis
(38.6272°N, 90.1978°W)
Time: 12:02:50
(UTC-05:00)

ISS - Pass Details

Date: 26 January 2013
Orbit: 402 x 406 km, 51.6° (Epoch: 30 August)

Event Time Altitude Azimuth Distance (km) Brightness Sun altitude
Exits shadow 05:05:00 20° 42° (NE) 991 -1.0 -24.6°
Drops below altitude 10° 05:07:01 10° 79° (E) 1,458 0.5 -24.2°
Sets 05:09:26 0° 96° (E) 2,320 2.0 -23.8°
